| time (UTC) | temp F | wind direction | speed MPH | gust MPH | rain 1hr in | rain 24hr in | rain mn in | humidity % | barometer mb |
| 20260508205003 | 77 | 109 | 3.0 | 8.0 | 0.00 | 0.29 | 0.29 | 68 | 1008.6 |
| 20260508204503 | 77 | 90 | 3.0 | 7.0 | 0.00 | 0.29 | 0.29 | 68 | 1008.6 |
| 20260508204003 | 77 | 103 | 3.0 | 6.0 | 0.00 | 0.29 | 0.29 | 67 | 1008.6 |
| 20260508203503 | 77 | 125 | 3.0 | 10.0 | 0.00 | 0.29 | 0.29 | 69 | 1008.6 |
| 20260508203003 | 76 | 116 | 4.0 | 10.0 | 0.00 | 0.29 | 0.29 | 68 | 1009.2 |
| 20260508202503 | 75 | 105 | 4.0 | 10.0 | 0.00 | 0.29 | 0.29 | 71 | 1009.4 |
| 20260508202003 | 74 | 121 | 4.0 | 10.0 | 0.00 | 0.29 | 0.29 | 70 | 1009.7 |
| 20260508201503 | 74 | 132 | 4.0 | 11.0 | 0.00 | 0.29 | 0.29 | 71 | 1009.9 |
| 20260508201213 | 74 | 137 | 3.0 | 11.0 | 0.00 | 0.29 | 0.29 | 71 | 1010.1 |
| 20260508200503 | 74 | 132 | 3.0 | 9.0 | 0.00 | 0.29 | 0.29 | 71 | 1010.4 |
| 20260508200003 | 74 | 135 | 3.0 | 9.0 | 0.00 | 0.29 | 0.29 | 70 | 1010.5 |
| 20260508195714 | 74 | 146 | 3.0 | 7.0 | 0.00 | 0.29 | 0.29 | 70 | 1010.6 |
| 20260508195003 | 75 | 138 | 3.0 | 8.0 | 0.00 | 0.29 | 0.29 | 70 | 1010.4 |
| 20260508194503 | 75 | 120 | 4.0 | 8.0 | 0.00 | 0.29 | 0.29 | 70 | 1010.4 |
| 20260508194003 | 75 | 121 | 4.0 | 8.0 | 0.00 | 0.29 | 0.29 | 69 | 1010.4 |
| 20260508193503 | 75 | 130 | 3.0 | 8.0 | 0.00 | 0.29 | 0.29 | 69 | 1010.4 |
| 20260508193003 | 76 | 144 | 3.0 | 7.0 | 0.00 | 0.29 | 0.29 | 69 | 1010.3 |
| 20260508192503 | 75 | 140 | 3.0 | 7.0 | 0.00 | 0.29 | 0.29 | 69 | 1010.3 |
| 20260508192003 | 75 | 123 | 4.0 | 10.0 | 0.00 | 0.29 | 0.29 | 69 | 1010.4 |
| 20260508191503 | 76 | 123 | 4.0 | 10.0 | 0.00 | 0.29 | 0.29 | 69 | 1010.5 |
| 20260508191003 | 76 | 122 | 4.0 | 10.0 | 0.00 | 0.29 | 0.29 | 68 | 1010.5 |
| 20260508190503 | 76 | 120 | 4.0 | 9.0 | 0.00 | 0.29 | 0.29 | 68 | 1010.5 |
| 20260508190213 | 76 | 120 | 4.0 | 9.0 | 0.00 | 0.29 | 0.29 | 68 | 1010.5 |
| 20260508185503 | 76 | 126 | 3.0 | 9.0 | 0.00 | 0.29 | 0.29 | 67 | 1010.6 |
| 20260508185003 | 77 | 137 | 3.0 | 9.0 | 0.00 | 0.29 | 0.29 | 67 | 1010.6 |
| 20260508184503 | 76 | 146 | 3.0 | 6.0 | 0.00 | 0.29 | 0.29 | 67 | 1010.5 |
| 20260508184003 | 77 | 148 | 3.0 | 9.0 | 0.00 | 0.29 | 0.29 | 67 | 1010.6 |
| 20260508183503 | 78 | 147 | 3.0 | 9.0 | 0.00 | 0.29 | 0.29 | 66 | 1010.7 |
| 20260508183003 | 78 | 132 | 3.0 | 7.0 | 0.00 | 0.29 | 0.29 | 66 | 1010.8 |
| 20260508182503 | 77 | 141 | 3.0 | 8.0 | 0.00 | 0.29 | 0.29 | 66 | 1010.9 |
| 20260508182003 | 78 | 138 | 3.0 | 8.0 | 0.00 | 0.29 | 0.29 | 65 | 1011.0 |
| 20260508181713 | 78 | 131 | 3.0 | 8.0 | 0.00 | 0.29 | 0.29 | 66 | 1011.0 |
| 20260508181212 | 77 | 132 | 3.0 | 10.0 | 0.00 | 0.29 | 0.29 | 66 | 1011.1 |
| 20260508180503 | 77 | 144 | 3.0 | 8.0 | 0.00 | 0.29 | 0.29 | 64 | 1011.2 |
| 20260508180003 | 77 | 128 | 4.0 | 9.0 | 0.00 | 0.29 | 0.29 | 65 | 1011.2 |
| 20260508175503 | 76 | 124 | 4.0 | 9.0 | 0.00 | 0.29 | 0.29 | 66 | 1011.4 |
| 20260508175003 | 77 | 125 | 3.0 | 8.0 | 0.00 | 0.29 | 0.29 | 65 | 1011.6 |
| 20260508174713 | 77 | 131 | 3.0 | 9.0 | 0.00 | 0.29 | 0.29 | 65 | 1011.5 |
| 20260508174003 | 77 | 136 | 3.0 | 9.0 | 0.00 | 0.29 | 0.29 | 66 | 1011.6 |
| 20260508173503 | 76 | 122 | 3.0 | 7.0 | 0.00 | 0.29 | 0.29 | 68 | 1011.7 |
| 20260508173212 | 76 | 121 | 3.0 | 8.0 | 0.00 | 0.29 | 0.29 | 67 | 1011.6 |
| 20260508172503 | 76 | 132 | 4.0 | 8.0 | 0.00 | 0.29 | 0.29 | 69 | 1011.7 |
| 20260508172003 | 76 | 143 | 4.0 | 9.0 | 0.00 | 0.29 | 0.29 | 68 | 1011.9 |
| 20260508171503 | 76 | 171 | 3.0 | 9.0 | 0.00 | 0.29 | 0.29 | 69 | 1011.9 |
| 20260508171003 | 76 | 158 | 3.0 | 8.0 | 0.00 | 0.29 | 0.29 | 69 | 1011.9 |
| 20260508170503 | 75 | 129 | 3.0 | 8.0 | 0.00 | 0.29 | 0.29 | 69 | 1011.9 |
| 20260508170003 | 75 | 125 | 3.0 | 8.0 | 0.00 | 0.29 | 0.29 | 71 | 1012.0 |
| 20260508165503 | 75 | 126 | 3.0 | 8.0 | 0.00 | 0.29 | 0.29 | 69 | 1012.2 |
| 20260508165003 | 74 | 127 | 2.0 | 7.0 | 0.00 | 0.29 | 0.29 | 70 | 1012.3 |
| 20260508164713 | 74 | 127 | 2.0 | 7.0 | 0.00 | 0.29 | 0.29 | 70 | 1012.3 |
| 20260508164003 | 74 | 117 | 3.0 | 8.0 | 0.00 | 0.29 | 0.29 | 71 | 1012.5 |
| 20260508163503 | 74 | 120 | 2.0 | 8.0 | 0.00 | 0.29 | 0.29 | 69 | 1012.6 |
| 20260508163003 | 74 | 139 | 3.0 | 8.0 | 0.00 | 0.29 | 0.29 | 71 | 1012.6 |
| 20260508162503 | 72 | 138 | 2.0 | 8.0 | 0.00 | 0.29 | 0.29 | 71 | 1012.7 |
| 20260508162213 | 72 | 126 | 2.0 | 7.0 | 0.00 | 0.29 | 0.29 | 73 | 1012.9 |
| 20260508161503 | 71 | 123 | 3.0 | 7.0 | 0.00 | 0.29 | 0.29 | 73 | 1013.0 |
| 20260508161213 | 70 | 134 | 2.0 | 7.0 | 0.00 | 0.29 | 0.29 | 73 | 1013.0 |
| 20260508160503 | 70 | 127 | 2.0 | 7.0 | 0.00 | 0.29 | 0.29 | 73 | 1013.1 |
| 20260508160213 | 70 | 115 | 2.0 | 7.0 | 0.00 | 0.29 | 0.29 | 72 | 1013.1 |
| 20260508155503 | 70 | 109 | 2.0 | 7.0 | 0.00 | 0.29 | 0.29 | 72 | 1013.1 |
| 20260508155003 | 70 | 123 | 2.0 | 7.0 | 0.00 | 0.29 | 0.29 | 72 | 1013.1 |
| 20260508154712 | 70 | 129 | 2.0 | 7.0 | 0.00 | 0.29 | 0.29 | 72 | 1013.2 |
| 20260508154003 | 70 | 124 | 2.0 | 7.0 | 0.00 | 0.29 | 0.29 | 72 | 1013.3 |
| 20260508153503 | 70 | 129 | 2.0 | 4.0 | 0.00 | 0.29 | 0.29 | 73 | 1013.3 |
| 20260508153003 | 69 | 114 | 2.0 | 6.0 | 0.00 | 0.29 | 0.29 | 73 | 1013.4 |
| 20260508152503 | 69 | 114 | 3.0 | 6.0 | 0.00 | 0.29 | 0.29 | 72 | 1013.4 |
| 20260508152003 | 69 | 124 | 3.0 | 8.0 | 0.00 | 0.29 | 0.29 | 74 | 1013.6 |
| 20260508151503 | 69 | 124 | 3.0 | 8.0 | 0.00 | 0.29 | 0.29 | 75 | 1013.6 |
| 20260508151213 | 68 | 122 | 2.0 | 6.0 | 0.00 | 0.29 | 0.29 | 78 | 1013.5 |
| 20260508150503 | 67 | 130 | 2.0 | 6.0 | 0.00 | 0.29 | 0.29 | 79 | 1013.6 |
| 20260508150003 | 66 | 136 | 1.0 | 5.0 | 0.00 | 0.29 | 0.29 | 80 | 1013.7 |
| 20260508145503 | 66 | 122 | 1.0 | 5.0 | 0.00 | 0.29 | 0.29 | 81 | 1013.7 |
| 20260508145213 | 66 | 119 | 1.0 | 5.0 | 0.00 | 0.29 | 0.29 | 81 | 1013.7 |
| 20260508144503 | 65 | 117 | 1.0 | 3.0 | 0.00 | 0.29 | 0.29 | 82 | 1014.0 |
| 20260508144003 | 65 | 133 | 1.0 | 2.0 | 0.00 | 0.29 | 0.29 | 82 | 1014.0 |
| 20260508143503 | 65 | 125 | 1.0 | 3.0 | 0.00 | 0.29 | 0.29 | 83 | 1014.2 |
| 20260508143003 | 65 | 124 | 1.0 | 3.0 | 0.00 | 0.29 | 0.29 | 82 | 1014.0 |
| 20260508142503 | 65 | 117 | 1.0 | 3.0 | 0.00 | 0.29 | 0.29 | 84 | 1013.9 |
| 20260508142213 | 65 | 117 | 1.0 | 3.0 | 0.00 | 0.29 | 0.29 | 85 | 1014.0 |
| 20260508141714 | 65 | 123 | 1.0 | 4.0 | 0.00 | 0.29 | 0.29 | 87 | 1014.0 |
| 20260508141003 | 64 | 130 | 1.0 | 4.0 | 0.00 | 0.29 | 0.29 | 87 | 1014.1 |
| 20260508140503 | 64 | 136 | 1.0 | 3.0 | 0.01 | 0.29 | 0.29 | 87 | 1014.1 |
| 20260508140213 | 64 | 140 | 1.0 | 3.0 | 0.01 | 0.29 | 0.29 | 89 | 1014.2 |
| 20260508135503 | 64 | 155 | 1.0 | 3.0 | 0.01 | 0.29 | 0.29 | 89 | 1013.8 |
| 20260508135003 | 64 | 151 | 1.0 | 4.0 | 0.01 | 0.29 | 0.29 | 89 | 1014.0 |
| 20260508134503 | 64 | 132 | 2.0 | 4.0 | 0.01 | 0.29 | 0.29 | 90 | 1014.0 |
| 20260508134003 | 63 | 122 | 2.0 | 4.0 | 0.01 | 0.29 | 0.29 | 90 | 1013.9 |
| 20260508133503 | 63 | 127 | 2.0 | 7.0 | 0.01 | 0.29 | 0.29 | 90 | 1013.7 |
| 20260508133003 | 63 | 127 | 2.0 | 7.0 | 0.01 | 0.29 | 0.29 | 90 | 1014.0 |
| 20260508132503 | 63 | 127 | 2.0 | 4.0 | 0.01 | 0.29 | 0.29 | 91 | 1013.9 |
| 20260508132003 | 63 | 142 | 2.0 | 4.0 | 0.01 | 0.29 | 0.29 | 91 | 1014.0 |
| 20260508131503 | 63 | 147 | 1.0 | 3.0 | 0.01 | 0.29 | 0.29 | 92 | 1013.9 |
| 20260508131003 | 62 | 149 | 1.0 | 3.0 | 0.01 | 0.29 | 0.29 | 92 | 1013.8 |
| 20260508130503 | 62 | 154 | 0.0 | 2.0 | 0.00 | 0.28 | 0.28 | 92 | 1013.6 |
| 20260508130003 | 62 | 156 | 0.0 | 1.0 | 0.00 | 0.28 | 0.28 | 92 | 1014.1 |
| 20260508125713 | 61 | 156 | 0.0 | 1.0 | 0.00 | 0.28 | 0.28 | 92 | 1014.0 |
| 20260508125212 | 61 | 156 | 0.0 | 2.0 | 0.00 | 0.28 | 0.28 | 92 | 1013.9 |
| 20260508124713 | 61 | 156 | 0.0 | 2.0 | 0.00 | 0.28 | 0.28 | 92 | 1014.1 |
| 20260508124003 | 61 | 156 | 0.0 | 2.0 | 0.00 | 0.28 | 0.28 | 92 | 1014.0 |
| 20260508123503 | 61 | 156 | 0.0 | 2.0 | 0.00 | 0.28 | 0.28 | 92 | 1014.2 |
| 20260508123003 | 61 | 156 | 1.0 | 3.0 | 0.00 | 0.28 | 0.28 | 92 | 1014.1 |
| 20260508122503 | 60 | 156 | 1.0 | 3.0 | 0.00 | 0.28 | 0.28 | 92 | 1014.2 |
| 20260508122003 | 60 | 155 | 1.0 | 3.0 | 0.00 | 0.28 | 0.28 | 92 | 1014.0 |
| 20260508121503 | 60 | 136 | 1.0 | 3.0 | 0.00 | 0.28 | 0.28 | 92 | 1014.2 |
| 20260508121003 | 60 | 135 | 2.0 | 4.0 | 0.00 | 0.28 | 0.28 | 92 | 1014.1 |
| 20260508120713 | 60 | 134 | 2.0 | 6.0 | 0.00 | 0.28 | 0.28 | 92 | 1014.1 |
| 20260508120214 | 60 | 140 | 2.0 | 6.0 | 0.00 | 0.28 | 0.28 | 92 | 1014.3 |
| 20260508115713 | 61 | 131 | 1.0 | 3.0 | 0.00 | 0.28 | 0.28 | 93 | 1014.4 |
| 20260508115003 | 60 | 200 | 1.0 | 3.0 | 0.00 | 0.28 | 0.28 | 93 | 1014.1 |
| 20260508114503 | 60 | 226 | 0.0 | 3.0 | 0.00 | 0.28 | 0.28 | 93 | 1014.8 |
| 20260508114214 | 60 | 140 | 0.0 | 2.0 | 0.00 | 0.28 | 0.28 | 93 | 1014.3 |
| 20260508113503 | 60 | 140 | 0.0 | 2.0 | 0.00 | 0.28 | 0.28 | 93 | 1013.8 |
| 20260508113214 | 60 | 140 | 0.0 | 1.0 | 0.00 | 0.28 | 0.28 | 93 | 1013.9 |
| 20260508112503 | 61 | 140 | 0.0 | 1.0 | 0.01 | 0.28 | 0.28 | 93 | 1014.0 |
| 20260508112003 | 61 | 139 | 0.0 | 2.0 | 0.02 | 0.28 | 0.28 | 93 | 1014.0 |
| 20260508111503 | 60 | 139 | 0.0 | 2.0 | 0.11 | 0.28 | 0.28 | 93 | 1014.1 |
| 20260508111003 | 60 | 0 | 0.0 | 0.0 | 0.13 | 0.28 | 0.28 | 93 | 1014.0 |
| 20260508110503 | 60 | 138 | 0.0 | 1.0 | 0.17 | 0.28 | 0.28 | 93 | 1013.9 |
| 20260508110003 | 60 | 135 | 0.0 | 4.0 | 0.17 | 0.28 | 0.28 | 93 | 1013.8 |
| 20260508105503 | 60 | 130 | 1.0 | 4.0 | 0.17 | 0.28 | 0.28 | 93 | 1013.8 |
| 20260508105003 | 60 | 129 | 1.0 | 3.0 | 0.17 | 0.28 | 0.28 | 93 | 1013.5 |
| 20260508104503 | 60 | 132 | 0.0 | 2.0 | 0.17 | 0.28 | 0.28 | 93 | 1013.6 |
| 20260508104003 | 60 | 132 | 0.0 | 2.0 | 0.17 | 0.28 | 0.28 | 93 | 1013.8 |
| 20260508103503 | 60 | 138 | 0.0 | 2.0 | 0.17 | 0.28 | 0.28 | 92 | 1013.6 |
| 20260508103003 | 60 | 138 | 0.0 | 2.0 | 0.18 | 0.28 | 0.28 | 92 | 1013.8 |
| 20260508102503 | 60 | 88 | 1.0 | 3.0 | 0.17 | 0.27 | 0.27 | 92 | 1013.7 |
| 20260508102003 | 61 | 56 | 1.0 | 3.0 | 0.16 | 0.26 | 0.26 | 92 | 1013.9 |
| 20260508101503 | 61 | 319 | 0.0 | 2.0 | 0.07 | 0.17 | 0.18 | 92 | 1013.8 |
| 20260508101213 | 61 | 309 | 0.0 | 2.0 | 0.06 | 0.16 | 0.16 | 92 | 1014.5 |
| 20260508100503 | 61 | 321 | 0.0 | 2.0 | 0.01 | 0.11 | 0.11 | 92 | 1013.9 |
| 20260508100003 | 60 | 0 | 0.0 | 0.0 | 0.01 | 0.11 | 0.11 | 92 | 1013.4 |
| 20260508095712 | 60 | 0 | 0.0 | 0.0 | 0.01 | 0.11 | 0.11 | 92 | 1013.4 |
| 20260508095003 | 60 | 0 | 0.0 | 0.0 | 0.01 | 0.11 | 0.11 | 92 | 1013.5 |
| 20260508094503 | 60 | 0 | 0.0 | 0.0 | 0.01 | 0.11 | 0.11 | 92 | 1013.7 |
| 20260508094003 | 60 | 0 | 0.0 | 0.0 | 0.01 | 0.11 | 0.11 | 92 | 1013.6 |
| 20260508093503 | 60 | 0 | 0.0 | 0.0 | 0.01 | 0.11 | 0.11 | 92 | 1013.3 |
| 20260508093003 | 60 | 0 | 0.0 | 0.0 | 0.00 | 0.10 | 0.10 | 91 | 1013.3 |
| 20260508092503 | 60 | 0 | 0.0 | 0.0 | 0.01 | 0.10 | 0.10 | 92 | 1013.6 |
| 20260508092003 | 60 | 0 | 0.0 | 0.0 | 0.02 | 0.10 | 0.10 | 91 | 1013.3 |
| 20260508091714 | 60 | 0 | 0.0 | 0.0 | 0.02 | 0.10 | 0.10 | 91 | 1013.4 |
| 20260508091003 | 60 | 0 | 0.0 | 0.0 | 0.02 | 0.10 | 0.10 | 91 | 1013.4 |
| 20260508090503 | 60 | 0 | 0.0 | 0.0 | 0.02 | 0.10 | 0.10 | 91 | 1013.5 |
| 20260508090003 | 60 | 0 | 0.0 | 0.0 | 0.02 | 0.10 | 0.10 | 91 | 1013.7 |
| 20260508085503 | 60 | 0 | 0.0 | 0.0 | 0.02 | 0.10 | 0.10 | 90 | 1013.6 |
| 20260508085003 | 60 | 0 | 0.0 | 0.0 | 0.02 | 0.10 | 0.10 | 90 | 1013.6 |
| 20260508084503 | 60 | 49 | 0.0 | 1.0 | 0.02 | 0.10 | 0.10 | 90 | 1013.8 |
| 20260508084003 | 60 | 48 | 0.0 | 1.0 | 0.02 | 0.10 | 0.10 | 90 | 1013.7 |
| 20260508083503 | 60 | 48 | 0.0 | 1.0 | 0.03 | 0.10 | 0.10 | 90 | 1013.8 |
| 20260508083003 | 61 | 48 | 0.0 | 1.0 | 0.03 | 0.10 | 0.10 | 90 | 1013.7 |
| 20260508082503 | 61 | 48 | 0.0 | 1.0 | 0.04 | 0.09 | 0.09 | 89 | 1013.9 |
| 20260508082003 | 61 | 336 | 0.0 | 1.0 | 0.03 | 0.08 | 0.08 | 89 | 1014.1 |
| 20260508081503 | 61 | 312 | 0.0 | 2.0 | 0.04 | 0.08 | 0.08 | 89 | 1014.1 |
| 20260508081003 | 61 | 291 | 0.0 | 2.0 | 0.05 | 0.08 | 0.08 | 89 | 1014.1 |
| 20260508080503 | 61 | 289 | 0.0 | 2.0 | 0.06 | 0.08 | 0.08 | 89 | 1014.4 |
| 20260508080003 | 61 | 286 | 0.0 | 3.0 | 0.08 | 0.08 | 0.08 | 89 | 1014.6 |
| 20260508075503 | 61 | 24 | 0.0 | 3.0 | 0.08 | 0.08 | 0.08 | 88 | 1014.3 |
| 20260508075003 | 61 | 50 | 0.0 | 3.0 | 0.08 | 0.08 | 0.08 | 88 | 1014.3 |
| 20260508074503 | 61 | 55 | 0.0 | 1.0 | 0.08 | 0.08 | 0.08 | 87 | 1013.8 |
| 20260508074003 | 61 | 55 | 0.0 | 2.0 | 0.08 | 0.08 | 0.08 | 86 | 1013.8 |
| 20260508073503 | 61 | 26 | 0.0 | 3.0 | 0.07 | 0.07 | 0.07 | 86 | 1014.3 |
| 20260508073003 | 61 | 305 | 0.0 | 3.0 | 0.07 | 0.07 | 0.07 | 85 | 1014.3 |
| 20260508072503 | 62 | 264 | 0.0 | 2.0 | 0.05 | 0.05 | 0.05 | 85 | 1014.8 |
| 20260508072003 | 62 | 265 | 0.0 | 2.0 | 0.05 | 0.05 | 0.05 | 84 | 1015.3 |
| 20260508071503 | 62 | 265 | 0.0 | 2.0 | 0.04 | 0.04 | 0.04 | 82 | 1015.2 |
| 20260508071003 | 63 | 260 | 0.0 | 2.0 | 0.03 | 0.03 | 0.03 | 81 | 1015.1 |
| 20260508070503 | 63 | 175 | 0.0 | 2.0 | 0.02 | 0.02 | 0.02 | 79 | 1015.4 |
| 20260508070212 | 63 | 131 | 0.0 | 2.0 | 0.00 | 0.00 | 0.01 | 78 | 1015.4 |
| 20260508065503 | 63 | 119 | 0.0 | 2.0 | 0.00 | 0.00 | 0.00 | 77 | 1015.0 |
| 20260508065212 | 64 | 119 | 0.0 | 1.0 | 0.00 | 0.00 | 0.00 | 77 | 1015.2 |
| 20260508064503 | 64 | 0 | 0.0 | 0.0 | 0.00 | 0.00 | 0.00 | 75 | 1014.5 |
| 20260508064003 | 64 | 0 | 0.0 | 0.0 | 0.00 | 0.00 | 0.00 | 75 | 1014.9 |
| 20260508063503 | 64 | 0 | 0.0 | 0.0 | 0.00 | 0.00 | 0.00 | 76 | 1014.6 |
| 20260508063003 | 64 | 0 | 0.0 | 0.0 | 0.00 | 0.00 | 0.00 | 77 | 1015.0 |
| 20260508062503 | 64 | 0 | 0.0 | 0.0 | 0.00 | 0.00 | 0.00 | 77 | 1015.0 |
| 20260508062214 | 64 | 0 | 0.0 | 0.0 | 0.00 | 0.00 | 0.00 | 77 | 1015.0 |
| 20260508061503 | 64 | 0 | 0.0 | 0.0 | 0.00 | 0.00 | 0.00 | 76 | 1015.4 |
| 20260508061003 | 64 | 0 | 0.0 | 0.0 | 0.00 | 0.00 | 0.00 | 74 | 1015.2 |
| 20260508060503 | 63 | 0 | 0.0 | 0.0 | 0.00 | 0.00 | 0.00 | 75 | 1015.1 |
| 20260508060003 | 63 | 0 | 0.0 | 0.0 | 0.00 | 0.00 | 0.00 | 76 | 1015.1 |
| 20260508055503 | 63 | 0 | 0.0 | 0.0 | 0.00 | 0.00 | 0.00 | 76 | 1015.3 |
| 20260508055003 | 63 | 119 | 0.0 | 1.0 | 0.00 | 0.00 | 0.00 | 77 | 1015.4 |
| 20260508054713 | 63 | 119 | 0.0 | 1.0 | 0.00 | 0.00 | 0.00 | 77 | 1015.4 |
| 20260508054003 | 63 | 0 | 0.0 | 0.0 | 0.00 | 0.00 | 0.00 | 75 | 1015.3 |
| 20260508053713 | 63 | 0 | 0.0 | 0.0 | 0.00 | 0.00 | 0.00 | 76 | 1015.2 |
| 20260508053003 | 63 | 0 | 0.0 | 0.0 | 0.00 | 0.00 | 0.00 | 76 | 1015.1 |
| 20260508052503 | 62 | 0 | 0.0 | 0.0 | 0.00 | 0.00 | 0.00 | 77 | 1015.1 |
| 20260508052003 | 62 | 0 | 0.0 | 0.0 | 0.00 | 0.00 | 0.00 | 77 | 1015.0 |
| 20260508051712 | 62 | 0 | 0.0 | 0.0 | 0.00 | 0.00 | 0.00 | 77 | 1015.1 |
| 20260508051003 | 62 | 0 | 0.0 | 0.0 | 0.00 | 0.00 | 0.00 | 77 | 1015.2 |
| 20260508050503 | 62 | 0 | 0.0 | 0.0 | 0.00 | 0.00 | 0.00 | 78 | 1015.1 |
| 20260508050003 | 62 | 0 | 0.0 | 0.0 | 0.00 | 0.00 | 0.00 | 78 | 1015.3 |
| 20260508045503 | 62 | 0 | 0.0 | 0.0 | 0.00 | 0.00 | 0.00 | 78 | 1015.3 |
| 20260508045003 | 62 | 0 | 0.0 | 0.0 | 0.00 | 0.00 | 0.00 | 78 | 1015.2 |
| 20260508044503 | 63 | 0 | 0.0 | 0.0 | 0.00 | 0.00 | 0.00 | 78 | 1015.3 |
| 20260508044003 | 63 | 0 | 0.0 | 0.0 | 0.00 | 0.00 | 0.00 | 77 | 1015.3 |
| 20260508043503 | 63 | 0 | 0.0 | 0.0 | 0.00 | 0.00 | 0.00 | 76 | 1015.3 |
| 20260508043003 | 64 | 0 | 0.0 | 0.0 | 0.00 | 0.00 | 0.00 | 75 | 1015.3 |
| 20260508042503 | 63 | 0 | 0.0 | 0.0 | 0.00 | 0.00 | 0.00 | 75 | 1015.1 |
| 20260508042003 | 63 | 0 | 0.0 | 0.0 | 0.00 | 0.00 | 0.00 | 75 | 1015.1 |
| 20260508041503 | 63 | 0 | 0.0 | 0.0 | 0.00 | 0.00 | 0.00 | 75 | 1015.1 |
| 20260508041003 | 63 | 0 | 0.0 | 0.0 | 0.00 | 0.00 | 0.00 | 74 | 1015.1 |
| 20260508040503 | 63 | 0 | 0.0 | 0.0 | 0.00 | 0.00 | 0.00 | 74 | 1015.1 |
| 20260508040003 | 63 | 0 | 0.0 | 0.0 | 0.00 | 0.00 | 0.00 | 74 | 1015.1 |
| 20260508035503 | 63 | 0 | 0.0 | 0.0 | 0.00 | 0.00 | 0.00 | 73 | 1015.1 |
| 20260508035003 | 64 | 0 | 0.0 | 0.0 | 0.00 | 0.00 | 0.00 | 72 | 1015.2 |
| 20260508034503 | 64 | 0 | 0.0 | 0.0 | 0.00 | 0.00 | 0.00 | 71 | 1015.0 |
| 20260508034003 | 64 | 0 | 0.0 | 0.0 | 0.00 | 0.00 | 0.00 | 70 | 1015.0 |
| 20260508033503 | 64 | 0 | 0.0 | 0.0 | 0.00 | 0.00 | 0.00 | 70 | 1014.9 |
| 20260508033213 | 64 | 0 | 0.0 | 0.0 | 0.00 | 0.00 | 0.00 | 70 | 1014.9 |
| 20260508032503 | 64 | 119 | 0.0 | 1.0 | 0.00 | 0.00 | 0.00 | 69 | 1014.9 |
| 20260508032003 | 65 | 119 | 0.0 | 1.0 | 0.00 | 0.00 | 0.00 | 69 | 1015.0 |
| 20260508031503 | 65 | 119 | 0.0 | 1.0 | 0.00 | 0.00 | 0.00 | 69 | 1014.9 |
| 20260508031003 | 65 | 119 | 0.0 | 1.0 | 0.00 | 0.00 | 0.00 | 69 | 1014.7 |
| 20260508030503 | 65 | 119 | 0.0 | 2.0 | 0.00 | 0.00 | 0.00 | 68 | 1014.9 |
| 20260508030003 | 65 | 119 | 0.0 | 2.0 | 0.00 | 0.00 | 0.00 | 68 | 1014.7 |
| 20260508025503 | 65 | 119 | 0.0 | 2.0 | 0.00 | 0.00 | 0.00 | 68 | 1014.8 |
| 20260508025003 | 65 | 119 | 0.0 | 2.0 | 0.00 | 0.00 | 0.00 | 68 | 1014.7 |
| 20260508024503 | 65 | 119 | 0.0 | 1.0 | 0.00 | 0.00 | 0.00 | 68 | 1014.7 |
| 20260508024003 | 65 | 119 | 0.0 | 2.0 | 0.00 | 0.00 | 0.00 | 68 | 1014.5 |
| 20260508023503 | 66 | 126 | 0.0 | 4.0 | 0.00 | 0.00 | 0.00 | 67 | 1014.5 |
| 20260508023003 | 66 | 134 | 1.0 | 4.0 | 0.00 | 0.00 | 0.00 | 67 | 1014.3 |
| 20260508022503 | 66 | 140 | 1.0 | 3.0 | 0.00 | 0.00 | 0.00 | 66 | 1014.3 |
| 20260508022003 | 66 | 138 | 1.0 | 3.0 | 0.00 | 0.00 | 0.00 | 66 | 1014.4 |
| 20260508021713 | 66 | 133 | 0.0 | 3.0 | 0.00 | 0.00 | 0.00 | 66 | 1014.4 |
| 20260508021003 | 66 | 132 | 1.0 | 3.0 | 0.00 | 0.00 | 0.00 | 66 | 1014.3 |
| 20260508020503 | 66 | 126 | 1.0 | 3.0 | 0.00 | 0.00 | 0.00 | 66 | 1014.3 |
| 20260508020003 | 67 | 153 | 0.0 | 3.0 | 0.00 | 0.00 | 0.00 | 66 | 1014.3 |
| 20260508015503 | 67 | 171 | 0.0 | 2.0 | 0.00 | 0.00 | 0.00 | 66 | 1014.2 |
| 20260508015003 | 67 | 171 | 0.0 | 2.0 | 0.00 | 0.00 | 0.00 | 66 | 1014.1 |
| 20260508014503 | 67 | 171 | 0.0 | 2.0 | 0.00 | 0.00 | 0.00 | 65 | 1014.2 |
| 20260508014003 | 67 | 171 | 0.0 | 2.0 | 0.00 | 0.00 | 0.00 | 65 | 1014.2 |
| 20260508013503 | 68 | 166 | 0.0 | 2.0 | 0.00 | 0.00 | 0.00 | 64 | 1014.1 |
| 20260508013003 | 68 | 128 | 1.0 | 3.0 | 0.00 | 0.00 | 0.00 | 64 | 1014.1 |
| 20260508012503 | 68 | 130 | 2.0 | 4.0 | 0.00 | 0.00 | 0.00 | 64 | 1014.1 |
| 20260508012214 | 68 | 134 | 2.0 | 4.0 | 0.00 | 0.00 | 0.00 | 63 | 1014.1 |
| 20260508011503 | 68 | 142 | 2.0 | 6.0 | 0.00 | 0.00 | 0.00 | 63 | 1014.0 |
| 20260508011214 | 68 | 145 | 2.0 | 6.0 | 0.00 | 0.00 | 0.00 | 63 | 1014.1 |
| 20260508010503 | 69 | 140 | 2.0 | 5.0 | 0.00 | 0.00 | 0.00 | 63 | 1014.2 |
| 20260508010003 | 69 | 153 | 2.0 | 4.0 | 0.00 | 0.00 | 0.00 | 62 | 1014.2 |
| 20260508005503 | 69 | 149 | 2.0 | 4.0 | 0.00 | 0.00 | 0.00 | 61 | 1014.3 |
| 20260508005003 | 69 | 132 | 3.0 | 8.0 | 0.00 | 0.00 | 0.00 | 61 | 1014.2 |
| 20260508004503 | 70 | 129 | 2.0 | 8.0 | 0.00 | 0.00 | 0.00 | 60 | 1014.0 |
| 20260508004003 | 70 | 129 | 2.0 | 8.0 | 0.00 | 0.00 | 0.00 | 60 | 1014.0 |
| 20260508003503 | 71 | 132 | 1.0 | 8.0 | 0.00 | 0.00 | 0.00 | 59 | 1013.9 |
| 20260508003003 | 71 | 153 | 0.0 | 2.0 | 0.00 | 0.00 | 0.00 | 60 | 1013.9 |
| 20260508002503 | 72 | 153 | 0.0 | 2.0 | 0.00 | 0.00 | 0.00 | 59 | 1014.0 |
| 20260508002003 | 72 | 153 | 0.0 | 2.0 | 0.00 | 0.00 | 0.00 | 56 | 1013.9 |
| 20260508001503 | 72 | 154 | 0.0 | 1.0 | 0.00 | 0.00 | 0.00 | 53 | 1014.0 |
| 20260508001003 | 72 | 154 | 0.0 | 2.0 | 0.00 | 0.00 | 0.00 | 52 | 1014.1 |
| 20260508000503 | 72 | 154 | 0.0 | 2.0 | 0.00 | 0.00 | 0.00 | 55 | 1014.1 |
| 20260508000003 | 73 | 154 | 0.0 | 2.0 | 0.00 | 0.00 | 0.00 | 53 | 1014.4 |
| 20260507234503 | 73 | 151 | 1.0 | 3.0 | 0.00 | 0.00 | 0.00 | 53 | 1014.3 |
| 20260507234003 | 73 | 129 | 1.0 | 3.0 | 0.00 | 0.00 | 0.00 | 53 | 1014.3 |
| 20260507233503 | 73 | 113 | 1.0 | 3.0 | 0.00 | 0.00 | 0.00 | 54 | 1014.3 |
| 20260507233003 | 73 | 94 | 1.0 | 3.0 | 0.00 | 0.00 | 0.00 | 52 | 1014.3 |
| 20260507232503 | 73 | 63 | 1.0 | 3.0 | 0.00 | 0.00 | 0.00 | 52 | 1014.4 |
| 20260507232003 | 73 | 41 | 0.0 | 2.0 | 0.00 | 0.00 | 0.00 | 53 | 1014.4 |
| 20260507231503 | 73 | 49 | 0.0 | 2.0 | 0.00 | 0.00 | 0.00 | 51 | 1014.4 |
| 20260507231213 | 73 | 66 | 1.0 | 3.0 | 0.00 | 0.00 | 0.00 | 51 | 1014.2 |
| 20260507230503 | 73 | 77 | 1.0 | 4.0 | 0.00 | 0.00 | 0.00 | 51 | 1014.4 |
| 20260507230003 | 73 | 77 | 1.0 | 4.0 | 0.00 | 0.00 | 0.00 | 50 | 1014.5 |
| 20260507225503 | 74 | 75 | 1.0 | 3.0 | 0.00 | 0.00 | 0.00 | 51 | 1014.5 |
| 20260507225003 | 73 | 69 | 1.0 | 5.0 | 0.00 | 0.00 | 0.00 | 50 | 1014.6 |
| 20260507224503 | 74 | 63 | 1.0 | 5.0 | 0.00 | 0.00 | 0.00 | 51 | 1014.6 |
| 20260507224003 | 74 | 60 | 1.0 | 4.0 | 0.00 | 0.00 | 0.00 | 51 | 1014.6 |
| 20260507223503 | 74 | 66 | 1.0 | 4.0 | 0.00 | 0.00 | 0.00 | 50 | 1014.6 |
| 20260507223003 | 74 | 77 | 1.0 | 4.0 | 0.00 | 0.00 | 0.00 | 50 | 1014.6 |
| 20260507222503 | 74 | 74 | 1.0 | 3.0 | 0.00 | 0.00 | 0.00 | 49 | 1014.6 |
| 20260507222003 | 74 | 69 | 1.0 | 3.0 | 0.00 | 0.00 | 0.00 | 50 | 1014.7 |
| 20260507221714 | 74 | 69 | 1.0 | 4.0 | 0.00 | 0.00 | 0.00 | 49 | 1014.7 |
| 20260507221003 | 74 | 83 | 1.0 | 4.0 | 0.00 | 0.00 | 0.00 | 50 | 1014.8 |
| 20260507220503 | 74 | 77 | 1.0 | 3.0 | 0.00 | 0.00 | 0.00 | 49 | 1014.8 |
| 20260507220003 | 74 | 45 | 1.0 | 3.0 | 0.00 | 0.00 | 0.00 | 48 | 1014.8 |
| 20260507215714 | 74 | 21 | 1.0 | 3.0 | 0.00 | 0.00 | 0.00 | 49 | 1014.8 |
| 20260507215212 | 74 | 110 | 1.0 | 3.0 | 0.00 | 0.00 | 0.00 | 50 | 1014.8 |
| 20260507214503 | 74 | 123 | 1.0 | 4.0 | 0.00 | 0.00 | 0.00 | 50 | 1014.9 |
| 20260507214213 | 74 | 127 | 1.0 | 4.0 | 0.00 | 0.00 | 0.00 | 50 | 1014.9 |
| 20260507213503 | 74 | 325 | 1.0 | 4.0 | 0.00 | 0.00 | 0.00 | 49 | 1015.0 |
| 20260507213003 | 74 | 12 | 1.0 | 4.0 | 0.00 | 0.00 | 0.00 | 48 | 1015.0 |
| 20260507212503 | 75 | 76 | 1.0 | 3.0 | 0.00 | 0.00 | 0.00 | 48 | 1015.1 |
| 20260507212003 | 75 | 67 | 1.0 | 4.0 | 0.00 | 0.00 | 0.00 | 48 | 1015.1 |
| 20260507211503 | 75 | 63 | 1.0 | 5.0 | 0.00 | 0.00 | 0.00 | 49 | 1015.2 |
| 20260507211003 | 75 | 61 | 2.0 | 5.0 | 0.00 | 0.00 | 0.00 | 47 | 1015.3 |
| 20260507210503 | 75 | 50 | 1.0 | 5.0 | 0.00 | 0.00 | 0.00 | 47 | 1015.4 |
| 20260507210003 | 75 | 7 | 1.0 | 5.0 | 0.00 | 0.00 | 0.00 | 48 | 1015.4 |
| 20260507205503 | 76 | 50 | 1.0 | 5.0 | 0.00 | 0.00 | 0.00 | 49 | 1015.3 |